Harrisburg, IL

6:59 PM CDT on September 19, 2017 (GMT -0500)
Harrisburg-Raleigh

Weather History for KHSB - January, 2012

Change the Weather History Date:

Sunday, January 1, 2012

  Actual Average (KMWA) Record (KMWA)
Temperature  
Mean Temperature 48 °F -  
Max Temperature 55 °F 38 °F 66 °F (2000)
Min Temperature 42 °F 21 °F -7 °F (1977)
Degree Days  
Heating Degree Days 16    
Moisture  
Dew Point 34 °F    
Average Humidity 57    
Maximum Humidity 82    
Minimum Humidity 35    
Precipitation  
Precipitation 0.00 in - - ()
Sea Level Pressure  
Sea Level Pressure 30.04 in    
Wind  
Wind Speed 18 mph (West)    
Max Wind Speed 28 mph    
Max Gust Speed 41 mph    
Visibility 10 miles    
Events      
Averages and records for this station are not official NWS values.
T = Trace of Precipitation, MM = Missing Value Source: NWS Daily Summary

Daily Weather History Graph

Daily Weather History Graph

Search for Another Location

Airport or City:

Trip Planner

Search our weather history database for the weather conditions in past years. The results will help you decide how hot, cold, wet, or windy it might be!

Date:

Astronomy

Jan. 01, 2012 Rise Set
Actual Time 7:09 AM CST 4:45 PM CST
Civil Twilight 6:40 AM CST 5:14 PM CST
Nautical Twilight 6:07 AM CST 5:47 PM CST
Astronomical Twilight 5:35 AM CST 6:19 PM CST
Moon 11:30 AM CST (1/1) 12:08 AM CST (1/1)
Length of Visible Light 10h 34m
Length of Day
9h 35m
First Quarter, 55% of the Moon is Illuminated
Jan 1
First Quarter
Jan 9
Full
Jan 16
Last Quarter
Jan 23
New
Jan 30
First Quarter

Hourly Weather History & Observations

Time (CST) Temp. Windchill Dew Point Humidity Pressure Visibility Wind Dir Wind Speed Gust Speed Precip Events Conditions
12:15 AM 55.4 °F - 39.2 °F 54% 29.80 in 10.0 mi SSW 13.8 mph - N/A   Clear
12:35 AM 55.4 °F - 41.0 °F 58% 29.79 in 10.0 mi SSW 16.1 mph 21.9 mph N/A   Clear
12:55 AM 55.4 °F - 41.0 °F 58% 29.79 in 10.0 mi SSW 15.0 mph 21.9 mph N/A   Clear
1:15 AM 55.4 °F - 41.0 °F 58% 29.78 in 10.0 mi SSW 11.5 mph - N/A   Clear
1:35 AM 55.4 °F - 42.8 °F 63% 29.77 in 10.0 mi SSW 13.8 mph 18.4 mph N/A   Clear
1:55 AM 53.6 °F - 42.8 °F 67% 29.78 in 10.0 mi SW 11.5 mph 18.4 mph N/A   Clear
2:15 AM 53.6 °F - 44.6 °F 72% 29.77 in 10.0 mi SSW 11.5 mph - N/A   Clear
2:35 AM 55.4 °F - 46.4 °F 72% 29.77 in 10.0 mi SW 12.7 mph - N/A   Clear
2:55 AM 55.4 °F - 50.0 °F 82% 29.77 in 10.0 mi SW 16.1 mph 20.7 mph N/A   Scattered Clouds
3:15 AM 55.4 °F - 50.0 °F 82% 29.77 in 10.0 mi SW 17.3 mph 24.2 mph N/A   Scattered Clouds
3:35 AM 55.4 °F - 50.0 °F 82% 29.78 in 10.0 mi SW 18.4 mph 23.0 mph N/A   Scattered Clouds
3:55 AM 55.4 °F - 48.2 °F 77% 29.79 in 10.0 mi WSW 17.3 mph 23.0 mph N/A   Clear
4:15 AM 55.4 °F - 46.4 °F 72% 29.80 in 10.0 mi WSW 17.3 mph 28.8 mph N/A   Clear
4:35 AM 53.6 °F - 44.6 °F 72% 29.81 in 10.0 mi WSW 15.0 mph 23.0 mph N/A   Clear
4:55 AM 53.6 °F - 44.6 °F 72% 29.82 in 10.0 mi WSW 13.8 mph 19.6 mph N/A   Clear
5:15 AM 53.6 °F - 42.8 °F 67% 29.85 in 10.0 mi West 21.9 mph 28.8 mph N/A   Mostly Cloudy
5:35 AM 51.8 °F - 41.0 °F 67% 29.87 in 10.0 mi West 25.3 mph 31.1 mph N/A   Overcast
5:55 AM 50.0 °F - 37.4 °F 62% 29.90 in 10.0 mi West 26.5 mph 33.4 mph N/A   Scattered Clouds
6:15 AM 50.0 °F - 35.6 °F 58% 29.92 in 10.0 mi West 26.5 mph 32.2 mph N/A   Scattered Clouds
6:35 AM 46.4 °F 37.5 °F 35.6 °F 66% 29.96 in 10.0 mi West 27.6 mph 40.3 mph N/A   Scattered Clouds
6:55 AM 46.4 °F 37.5 °F 35.6 °F 66% 29.98 in 10.0 mi WNW 27.6 mph 41.4 mph N/A   Overcast
7:15 AM 44.6 °F 35.7 °F 35.6 °F 71% 30.01 in 10.0 mi West 24.2 mph 29.9 mph N/A   Overcast
7:35 AM 44.6 °F 36.1 °F 33.8 °F 66% 30.03 in 10.0 mi WNW 21.9 mph 40.3 mph N/A   Overcast
7:55 AM 44.6 °F 35.9 °F 33.8 °F 66% 30.05 in 10.0 mi WNW 23.0 mph 33.4 mph N/A   Overcast
8:15 AM 44.6 °F 35.7 °F 33.8 °F 66% 30.06 in 10.0 mi WNW 24.2 mph 31.1 mph N/A   Overcast
8:35 AM 44.6 °F 35.1 °F 33.8 °F 66% 30.08 in 10.0 mi WNW 27.6 mph 34.5 mph N/A   Overcast
8:55 AM 44.6 °F 35.9 °F 33.8 °F 66% 30.08 in 10.0 mi WNW 23.0 mph 27.6 mph N/A   Overcast
9:15 AM 44.6 °F 36.4 °F 33.8 °F 66% 30.11 in 10.0 mi WNW 20.7 mph 31.1 mph N/A   Overcast
9:35 AM 44.6 °F 36.6 °F 33.8 °F 66% 30.13 in 10.0 mi WNW 19.6 mph 32.2 mph N/A   Overcast
9:55 AM 44.6 °F 37.8 °F 35.6 °F 71% 30.14 in 10.0 mi WNW 15.0 mph 25.3 mph N/A   Overcast
10:15 AM 46.4 °F 39.2 °F 35.6 °F 66% 30.15 in 10.0 mi West 18.4 mph 26.5 mph N/A   Mostly Cloudy
10:35 AM 46.4 °F 38.3 °F 33.8 °F 62% 30.15 in 10.0 mi West 23.0 mph 32.2 mph N/A   Scattered Clouds
10:55 AM 46.4 °F 38.5 °F 32.0 °F 57% 30.15 in 10.0 mi WNW 21.9 mph 32.2 mph N/A   Scattered Clouds
11:15 AM 48.2 °F - 32.0 °F 54% 30.15 in 10.0 mi WNW 20.7 mph 31.1 mph N/A   Clear
11:35 AM 48.2 °F - 32.0 °F 54% 30.16 in 10.0 mi WNW 21.9 mph 32.2 mph N/A   Clear
11:55 AM 48.2 °F - 32.0 °F 54% 30.16 in 10.0 mi WNW 19.6 mph 26.5 mph N/A   Clear
12:15 PM 48.2 °F - 32.0 °F 54% 30.17 in 10.0 mi WNW 19.6 mph 28.8 mph N/A   Clear
12:35 PM 48.2 °F - 30.2 °F 50% 30.17 in 10.0 mi WNW 24.2 mph 29.9 mph N/A   Clear
12:55 PM 50.0 °F - 28.4 °F 43% 30.17 in 10.0 mi NW 20.7 mph 26.5 mph N/A   Clear
1:15 PM 50.0 °F - 26.6 °F 40% 30.18 in 10.0 mi NW 21.9 mph 32.2 mph N/A   Clear
1:35 PM 48.2 °F - 26.6 °F 43% 30.20 in 10.0 mi NW 19.6 mph 32.2 mph N/A   Clear
1:55 PM 50.0 °F - 23.0 °F 35% 30.20 in 10.0 mi WNW 17.3 mph 29.9 mph N/A   Clear
2:15 PM 50.0 °F - 26.6 °F 40% 30.21 in 10.0 mi WNW 13.8 mph - N/A   Clear
2:35 PM 48.2 °F - 26.6 °F 43% 30.21 in 10.0 mi WNW 17.3 mph 26.5 mph N/A   Clear
2:55 PM 48.2 °F - 23.0 °F 37% 30.23 in 10.0 mi WNW 23.0 mph 27.6 mph N/A   Clear
3:15 PM 48.2 °F - 23.0 °F 37% 30.23 in 10.0 mi WNW 10.4 mph 23.0 mph N/A   Clear
3:35 PM 46.4 °F 39.0 °F 23.0 °F 40% 30.23 in 10.0 mi WNW 19.6 mph 26.5 mph N/A   Clear
3:55 PM 46.4 °F 39.2 °F 23.0 °F 40% 30.24 in 10.0 mi West 18.4 mph 27.6 mph N/A   Clear
4:15 PM 46.4 °F 40.1 °F 21.2 °F 37% 30.25 in 10.0 mi WNW 15.0 mph 24.2 mph N/A   Clear
4:35 PM 44.6 °F 36.6 °F 21.2 °F 39% 30.26 in 10.0 mi WNW 19.6 mph 26.5 mph N/A   Clear
4:55 PM 44.6 °F 36.4 °F 19.4 °F 37% 30.27 in 10.0 mi WNW 20.7 mph 34.5 mph N/A   Clear
5:15 PM 44.6 °F 37.4 °F 19.4 °F 37% 30.28 in 10.0 mi WNW 16.1 mph 26.5 mph N/A   Clear
5:35 PM 42.8 °F 35.8 °F 19.4 °F 39% 30.28 in 10.0 mi WNW 13.8 mph 26.5 mph N/A   Scattered Clouds
5:55 PM 42.8 °F 35.1 °F 19.4 °F 39% 30.30 in 10.0 mi WNW 16.1 mph 27.6 mph N/A   Scattered Clouds
6:15 PM 42.8 °F 35.1 °F 17.6 °F 36% 30.31 in 10.0 mi WNW 16.1 mph 23.0 mph N/A   Clear
6:35 PM 42.8 °F 34.0 °F 17.6 °F 36% 30.32 in 10.0 mi NW 20.7 mph 27.6 mph N/A   Clear
6:55 PM 42.8 °F 35.4 °F 17.6 °F 36% 30.32 in 10.0 mi WNW 15.0 mph 24.2 mph N/A   Clear
7:15 PM 41.0 °F 33.1 °F 19.4 °F 42% 30.33 in 10.0 mi WNW 15.0 mph 19.6 mph N/A   Clear
7:35 PM 41.0 °F 31.9 °F 17.6 °F 39% 30.33 in 10.0 mi NW 19.6 mph 24.2 mph N/A   Clear
7:55 PM 41.0 °F 32.5 °F 17.6 °F 39% 30.33 in 10.0 mi WNW 17.3 mph 23.0 mph N/A   Clear
8:15 PM 39.2 °F 32.0 °F 17.6 °F 42% 30.33 in 10.0 mi WNW 11.5 mph 20.7 mph N/A   Clear
8:35 PM 37.4 °F 30.8 °F 17.6 °F 45% 30.33 in 10.0 mi WNW 9.2 mph - N/A   Clear
8:55 PM 37.4 °F 28.2 °F 17.6 °F 45% 30.33 in 10.0 mi WNW 16.1 mph 19.6 mph N/A   Clear
9:15 PM 37.4 °F 29.3 °F 17.6 °F 45% 30.33 in 10.0 mi WNW 12.7 mph 16.1 mph N/A   Clear
9:35 PM 37.4 °F 30.3 °F 15.8 °F 41% 30.32 in 10.0 mi WNW 10.4 mph 18.4 mph N/A   Clear
9:55 PM 35.6 °F 28.0 °F 17.6 °F 48% 30.32 in 10.0 mi WNW 10.4 mph - N/A   Clear
10:15 PM 35.6 °F 29.2 °F 17.6 °F 48% 30.31 in 10.0 mi WNW 8.1 mph - N/A   Clear
10:35 PM 33.8 °F 29.6 °F 19.4 °F 56% 30.31 in 10.0 mi West 4.6 mph - N/A   Clear
10:55 PM 32.0 °F 26.4 °F 19.4 °F 60% 30.31 in 10.0 mi West 5.8 mph - N/A   Clear
11:15 PM 32.0 °F 24.2 °F 19.4 °F 60% 30.31 in 10.0 mi West 9.2 mph - N/A   Clear
11:35 PM 33.8 °F 24.3 °F 17.6 °F 52% 30.31 in 10.0 mi WNW 13.8 mph - N/A   Clear
11:55 PM 33.8 °F 24.3 °F 17.6 °F 52% 30.31 in 10.0 mi WNW 13.8 mph - N/A   Clear